Regional Weather Roundup
Issued by NWS Huntsville, AL

Home | Current Version | Previous Version | Text Only | Print | Product List | Glossary On
Versions: 1 2 3 4 5 6 7 8 9 10 11 12 13 14 15 16 17 18 19 20 21 22 23 24 25 26 27
000
ASUS44 KHUN 210510
RWRHUN

WEATHER ROUNDUP FOR THE TENNESSEE VALLEY
NATIONAL WEATHER SERVICE HUNTSVILLE AL
1200 AM CDT SAT OCT 21 2017

ALZ001>004-210600-
NORTHWEST ALABAMA

CITY           SKY/WX    TMP DP  RH WIND       PRES   REMARKS
COURTLAND HCN    N/A     52 N/A N/A CALM        N/A
RUSSELLVILLE     N/A     48 N/A N/A MISG        N/A
SHOALS AIRPORT PTCLDY    51  46  83 E5        30.18S
SHOALS TVA RES   N/A     48 N/A N/A MISG        N/A
$$

ALZ005>007-016-210600-
NORTH CENTRAL ALABAMA

CITY           SKY/WX    TMP DP  RH WIND       PRES   REMARKS
CULLMAN AG STN   N/A     50 N/A N/A CALM        N/A
DECATUR AP     CLOUDY    51  51 100 CALM      30.19S
HUNTSVILLE AP  CLOUDY    55  54  96 E3        30.18S
MERIDIANVILLE  PTCLDY    48  46  93 CALM      30.19S
REDSTONE ARSN  CLOUDY    53  50  89 CALM      30.17F
VINEMONT AP    FAIR      60  44  54 SE5       30.20F
$$

ALZ008>010-210600-
NORTHEAST ALABAMA

CITY           SKY/WX    TMP DP  RH WIND       PRES   REMARKS
ALBERTVILLE    PTCLDY    55  54  94 E5        30.19S
FORT PAYNE     CLOUDY    48  45  87 CALM      30.21S
SCOTTSBORO AP  CLOUDY    52  52 100 CALM      30.21S
SCOTTSBORO HCN   N/A     50 N/A N/A MISG        N/A
VALLEY HEAD      N/A     46 N/A N/A MISG        N/A
$$

TNZ076-096-097-210600-
SOUTHEASTERN MIDDLE TENNESSEE

CITY           SKY/WX    TMP DP  RH WIND       PRES   REMARKS
TULLAHOMA      CLEAR     48  46  93 CALM      30.20F
WINCHESTER     CLEAR     52  46  82 CALM        N/A
$$

...SURROUNDING SITES...

CITY           SKY/WX    TMP DP  RH WIND       PRES   REMARKS
ATLANTA        CLOUDY    59  48  67 CALM      30.22F
ANNISTON       CLOUDY    54  50  86 NE5       30.20F
BIRMINGHAM     MOCLDY    57  51  80 CALM      30.20F
CHATTANOOGA    CLEAR     53  50  89 CALM      30.22F
CORINTH        FAIR      52  50  93 CALM      30.13F FOG
DALTON         CLOUDY    50  50 100 CALM      30.24S
GADSDEN        CLOUDY    50  50 100 CALM      30.21S
GOLDEN TRNGL   PTCLDY    64  54  69 SE9       30.14S
HALEYVILLE     FAIR      57  51  80 SE5       30.19F
JACKSON TN     PTCLDY    54  51  90 CALM      30.13F
MEMPHIS        CLOUDY    67  54  63 SE8       30.09F
NASHVILLE      PTCLDY    55  50  83 S5        30.18S
OXFORD MS      FAIR      63  55  77 SE6       30.13S
ROME           CLOUDY    51  50  96 CALM      30.21F
SAVANNAH       CLEAR     48  46  93 CALM      30.14F
SELMER         CLEAR     59  50  72 SE5       30.14S
TUPELO         CLEAR     57  52  83 CALM      30.14S
TUSCALOOSA     PTCLDY    58  54  86 CALM      30.16F
$$

...GULF COAST WEATHER...

CITY           SKY/WX    TMP DP  RH WIND       PRES   REMARKS
GULFPORT       PTCLDY    72  69  90 E6        30.08F
PASCAGOULA     MOCLDY    67  64  90 CALM      30.10S
MOBILE         MOCLDY    69  62  78 E6        30.11F
GULF SHORES    MOCLDY    69  67  93 E3        30.10F
PENSACOLA      PTCLDY    72  62  71 N3        30.10F
DESTIN         CLOUDY    74  58  57 E5        30.12F
PANAMA CITY    CLOUDY    72  63  73 E8        30.12F
APPALACHICOLA  CLEAR     77  70  79 E9G17     30.11F
$$





USA.gov is the U.S. government's official web portal to all federal, state and local government web resources and services.